Hourly Weather Roundup
Issued by NWS Central Illinois

Home | Current Version | Previous Version | Text Only | Print | Product List | Glossary On
Versions: 1 2 3 4 5 6 7 8 9 10 11 12 13 14 15 16 17 18 19 20 21 22 23 24 25 26 27 28 29 30 31 32 33 34 35 36 37 38 39 40 41 42 43 44 45 46 47 48 49 50
000
NZUS43 KILX 280510
HWRILX

AREA WEATHER ROUNDUP
NATIONAL WEATHER SERVICE, LINCOLN IL
1100 PM CST TUE JAN 27 2015


CITY           SKY/WX    TMP DP  RH WIND       PRES   REMARKS
BLOOMINGTON    CLOUDY    29  26  88 SE6       30.26R WCI  23
CHAMPAIGN      CLEAR     22  18  85 CALM      30.27R
DECATUR        PTCLDY    25  22  88 CALM      30.27R FOG
FLORA          CLEAR     28  26  93 CALM      30.28R
GALESBURG      CLOUDY    28  25  89 SE5       30.24R WCI  23
JACKSONVILLE   CLOUDY    32  28  85 E7        30.25R WCI  26
LACON          CLOUDY    29  24  81 S3        30.26R
LAWRENCEVILLE  CLOUDY    29  24  82 NE5       30.28R WCI  24
LITCHFIELD     CLEAR     27  24  90 E5        30.25R FOG     WCI  21
$$


CITY           SKY/WX    TMP DP  RH WIND       PRES   REMARKS
LINCOLN        MOCLDY    31  25  79 SE5       30.27S WCI  26
MACOMB         CLOUDY    29  27  92 SE6       30.26S WCI  23
MATTOON        CLEAR     23  20  88 CALM      30.26R
MT CARMEL AP   CLOUDY    32  27  80 NE5       30.28R WCI  27
OLNEY-NOBLE AP CLEAR     28  23  80 CALM      30.28R
PARIS          CLEAR     20  19  96 CALM      30.28R
PEORIA         CLOUDY    31  24  75 SE7       30.25F WCI  24
PONTIAC        CLOUDY    28  25  86 E5        30.27S WCI  23
RANTOUL        CLEAR     23  21  91 N3        30.27R
ROBINSON       CLEAR     25  23  93 N3        30.28S
SPRINGFIELD    PTCLDY    28  23  81 E3        30.26S
TAYLORVILLE    CLEAR     28  25  86 E5        30.26R WCI  23
$$

...REGIONAL REPORTS...


CITY           SKY/WX    TMP DP  RH WIND       PRES   REMARKS
CHICAGO O`HARE MOCLDY    21  16  81 CALM      30.26R
KANKAKEE       CLEAR     19  16  88 CALM      30.28R
MOLINE         CLOUDY    27  22  81 SE7       30.25R WCI  19
MOUNT VERNON   CLEAR     27  21  80 NE5       30.27R WCI  21
PITTSFIELD     CLOUDY    29  27  92 E6        30.24S FOG     WCI  23
QUINCY         CLEAR     28  25  88 E8        30.22R FOG     WCI  20
ROCKFORD       CLOUDY    24  18  77 SE5       30.27R WCI  18
$$


CITY           SKY/WX    TMP DP  RH WIND       PRES   REMARKS
BURLINGTON     CLOUDY    29  25  85 E7        30.22F WCI  22
CEDAR RAPIDS   CLOUDY    27  24  89 SE10      30.19F WCI  17
DES MOINES     CLEAR     31  27  85 SE10      30.13F WCI  22
KIRKSVILLE     CLEAR     29  27  92 E8        30.18S FOG     WCI  21
OTTUMWA        CLOUDY    28  26  92 SE12      30.18S WCI  18
ST LOUIS       CLEAR     30  24  78 E7        30.24F WCI  23
$$


CITY           SKY/WX    TMP DP  RH WIND       PRES   REMARKS
TERRE HAUTE    CLEAR     21  17  84 CALM      30.27R
EVANSVILLE     CLOUDY    34  27  75 NE6       30.27R WCI  29
INDIANAPOLIS   CLEAR     20  12  71 CALM      30.24R
LAFAYETTE      CLEAR     19  15  84 CALM      30.26R
MADISON        CLOUDY    26  21  81 SE5       30.23S WCI  20
MILWAUKEE      CLOUDY    27  18  69 E5        30.25S WCI  22
$$




USA.gov is the U.S. government's official web portal to all federal, state and local government web resources and services.